Temp_Advection
nan nan nan nan nan nan nan nan nan nan nan nan nan nan nan nan nan nan nan nan nan nan nan nan nan nan nan nan nan nan nan nan nan nan nan nan nan nan nan nan nan nan
nan 1 1 1 1 1 1 1 1 1 1 0 0 0 0 0 0 0 0 0 0 0 0 0 0 0 0 0 -0 -0 -0 -0 -0 -0 -0 -0 -0 -0 -0 -0 -0 nan
nan 1 1 1 1 1 1 1 1 1 1 0 0 0 0 0 1 1 0 0 0 0 0 0 0 0 0 0 -0 -0 -0 -0 -0 -0 -0 -0 -0 -0 -0 -0 -0 nan
nan 1 1 2 2 2 2 1 1 1 1 0 0 1 1 1 1 1 0 0 0 0 0 0 0 0 0 0 -0 -0 -0 -0 -0 -0 -0 -0 -0 -0 -0 -0 -0 nan
nan 2 2 2 2 2 2 2 1 1 1 1 1 1 1 1 1 1 0 0 0 0 0 0 0 0 0 0 -0 -0 -0 -0 -0 -0 -0 -0 -0 -0 -0 -0 -0 nan
nan 1 2 2 2 2 1 1 1 1 1 1 1 1 1 1 1 1 0 0 0 0 0 0 0 0 0 0 0 0 -0 -0 -0 -0 -0 -0 -0 -0 -0 -0 -0 nan
nan 1 1 1 1 1 1 1 1 1 1 1 1 1 1 1 1 0 0 0 0 0 0 0 0 0 0 0 0 0 -0 -0 -0 -0 -0 -0 -0 -0 -0 -0 -0 nan
nan 1 1 1 1 1 1 1 0 0 1 1 1 1 1 1 0 0 0 0 0 0 0 0 0 0 0 0 0 0 -0 -0 -0 -0 -0 -0 -0 -0 -0 -0 -0 nan
nan 1 1 1 1 1 0 0 1 1 1 1 1 1 1 1 0 0 0 0 0 0 0 0 0 0 0 0 0 0 -0 -0 -0 -0 -0 -0 -0 -0 -0 -0 -0 nan
nan 1 1 1 1 1 1 1 1 1 1 1 1 1 1 0 0 0 0 0 0 0 0 0 0 0 0 0 -0 -0 -0 -0 -0 -0 -0 -0 -0 -0 -0 -0 -0 nan
nan 1 1 1 1 1 1 1 1 1 0 1 1 1 0 0 0 0 0 0 0 0 -0 -0 0 0 0 0 -0 -0 -0 -0 -0 -0 -0 -0 -0 -0 -0 -0 -0 nan
nan 1 1 1 1 1 1 1 0 0 1 1 1 1 1 0 0 0 0 0 -0 -0 -0 0 0 0 -0 -0 -0 -0 -0 -0 -0 -0 -0 -0 -0 -0 -0 -0 -0 nan
nan 1 1 1 1 1 1 1 1 1 1 1 1 1 1 0 0 0 0 -0 -0 -0 0 0 0 -0 -0 -0 -0 -0 -0 -0 -0 -0 -0 -0 -0 -0 -0 -0 -0 nan
nan 1 1 1 1 1 1 1 1 1 1 1 1 1 0 0 0 0 -0 -0 -0 0 0 0 -0 -0 -0 -0 -0 -0 -0 -0 -0 -0 -0 -0 -0 -0 -0 -0 -0 nan
nan 1 1 1 1 1 1 1 1 1 1 1 1 0 0 0 0 -0 -0 -0 0 0 0 -0 -0 -0 -0 -0 -0 -0 -0 -0 -0 -0 -0 -0 -0 -0 -0 -0 -0 nan
nan 1 1 1 1 0 0 1 1 1 0 0 0 0 0 0 0 0 0 0 0 0 -0 -0 -0 -0 -0 -0 -0 -0 -0 -0 -0 -0 -0 -0 -0 -0 -0 -0 -0 nan
nan 1 1 0 0 0 0 0 0 0 0 0 0 0 0 0 0 0 0 0 0 -0 -0 -0 -0 -0 -0 -0 -0 -0 -0 -0 -0 -0 -0 -0 -0 -0 -0 -0 -0 nan
nan 0 0 1 0 0 0 0 0 0 0 0 0 0 0 0 0 0 0 0 0 -0 -0 -0 -0 -0 -0 -0 -0 -0 -0 -0 -0 -0 -0 -0 -0 -0 -0 -0 -0 nan
nan 1 1 1 0 0 0 0 0 1 1 0 0 0 0 0 0 0 0 0 -0 -0 -0 -0 -0 -0 -0 -0 -0 -0 -0 -0 -0 -0 -0 -0 -0 -0 -0 -0 -0 nan
nan 1 1 1 0 0 0 1 1 1 1 0 0 -0 0 0 0 0 0 -0 -0 -0 0 -0 -0 0 0 -0 -0 -0 -0 -0 -0 -0 -0 -0 -0 -0 -0 -0 -0 nan
nan 1 1 1 1 1 1 1 1 1 0 0 0 0 0 0 0 0 -0 -0 0 0 0 -0 -0 -0 -0 -0 -0 -0 -0 -0 -0 -0 -0 -0 -0 -0 -0 -0 -0 nan
nan 1 1 1 1 1 1 1 1 0 0 0 0 0 0 0 0 0 -0 -0 -0 0 0 -0 -0 -0 -0 -0 -0 -0 -0 -0 -0 -0 -0 -0 -0 -0 -0 -0 -0 nan
nan 1 1 1 1 1 1 1 0 0 0 0 0 0 0 0 0 -0 -0 -0 -0 -0 0 0 -0 -0 -0 -0 -0 -0 -0 -0 -0 -0 -0 -0 -0 -0 -0 -0 -0 nan
nan 1 1 1 1 1 1 0 0 0 0 0 0 0 0 0 0 -0 -0 -0 -0 -0 0 0 -0 -0 -0 -0 0 -0 -0 -0 -0 -0 -0 -0 -0 -0 -0 -0 0 nan
nan 1 1 1 1 0 0 0 0 0 0 0 0 0 0 0 -0 -0 -0 0 0 0 -0 -0 -0 -0 -0 -0 0 0 -0 -0 -0 -0 -0 -0 -0 -0 -0 -0 -0 nan
nan nan nan nan nan nan nan nan nan nan nan nan nan nan nan nan nan nan nan nan nan nan nan nan nan nan nan nan nan nan nan nan nan nan nan nan nan nan nan nan nan nan
Wind_Speed
29 28 26 26 26 25 24 23 22 21 19 17 16 15 13 12 10 9 8 7 6 5 4 3 3 2 2 1 0 1 1 2 3 4 4 5 6 6 7 7 8 8
31 29 27 27 27 26 25 23 22 20 18 17 15 14 12 11 10 9 8 7 6 5 4 3 2 1 1 1 1 2 3 3 4 5 6 7 7 8 8 8 9 9
32 30 29 29 28 27 25 23 21 20 18 16 14 13 11 10 10 9 9 7 6 4 3 2 2 2 2 2 3 3 4 5 6 7 7 8 8 8 9 9 9 10
32 30 30 29 28 26 24 23 21 19 17 15 14 12 11 11 10 10 9 7 5 4 3 3 2 2 3 3 4 5 5 6 7 7 8 8 8 9 9 9 10 11
33 31 31 30 28 26 24 22 21 19 17 15 14 13 12 12 11 10 8 6 5 4 4 3 3 3 3 4 5 6 6 7 7 7 8 8 8 9 10 10 11 11
32 31 30 29 27 25 23 21 19 18 16 15 14 13 12 12 11 9 8 6 6 5 5 4 4 4 5 5 6 6 7 7 7 8 8 9 9 10 10 11 12 12
32 31 29 27 25 23 21 20 18 17 15 14 13 13 12 11 10 8 7 6 6 5 5 5 5 5 6 6 7 7 7 8 8 8 9 9 10 10 11 12 13 13
33 31 30 27 24 22 21 19 18 16 15 15 14 13 12 11 9 8 7 6 6 6 5 5 5 6 6 7 7 7 8 8 9 9 10 10 10 11 12 13 13 14
33 31 29 27 24 23 21 19 18 17 16 15 14 13 11 10 9 8 7 6 6 6 5 6 6 6 7 7 8 8 9 9 10 10 11 11 12 12 13 13 14 15
33 31 29 26 25 23 22 20 19 18 16 15 13 12 11 10 9 8 7 6 6 6 6 6 7 7 8 8 8 9 10 10 11 12 12 12 13 13 14 15 15 16
32 30 28 26 25 23 22 20 19 17 15 14 13 12 11 10 9 8 7 6 6 7 7 7 8 8 8 9 9 10 11 11 12 13 13 14 14 14 15 16 16 17
31 29 28 26 25 23 22 20 18 16 15 14 13 12 11 9 9 8 7 7 7 8 8 8 8 9 9 9 10 11 12 12 13 14 14 15 16 16 17 17 18 18
30 28 27 26 24 23 22 20 18 16 15 14 12 12 11 10 9 8 8 8 8 9 9 8 8 9 9 10 11 12 13 13 14 15 16 16 17 18 18 19 19 20
30 28 27 26 24 23 21 19 17 15 14 13 12 12 11 10 9 9 9 9 9 9 9 8 9 9 10 11 12 13 14 15 16 16 17 18 18 19 20 20 21 21
30 29 27 26 24 22 20 18 16 15 14 13 13 12 11 10 9 9 9 9 9 8 8 8 9 10 11 12 13 14 15 16 16 17 18 19 19 20 21 21 22 22
29 28 27 26 24 22 19 17 16 15 14 13 12 11 10 10 9 9 9 9 8 8 8 8 9 11 12 13 14 15 16 16 17 18 19 20 20 21 22 23 23 24
29 28 27 25 23 21 19 17 16 15 14 13 12 11 10 10 9 9 9 8 8 8 9 10 11 12 13 14 15 16 17 18 19 19 20 21 22 23 24 24 25 26
28 27 26 24 22 20 18 17 16 15 14 13 11 10 10 10 10 9 8 7 8 9 10 11 12 13 14 15 16 17 18 19 20 21 21 22 23 24 24 25 26 26
27 27 25 23 22 19 18 16 15 14 13 12 11 11 11 11 10 9 8 8 8 9 10 11 12 13 14 15 16 17 19 20 21 21 22 23 24 25 25 25 26 27
28 27 25 23 21 19 17 16 15 14 13 12 12 12 11 11 10 9 8 9 9 10 11 12 13 14 15 16 17 18 19 21 22 23 23 24 24 25 26 26 27 28
28 26 24 22 20 18 17 16 15 15 14 13 13 12 12 11 10 9 9 9 10 11 12 13 14 14 15 17 18 20 21 23 24 24 24 25 25 25 26 27 27 28
28 26 23 21 19 18 17 17 16 15 14 13 13 12 11 10 10 9 10 10 10 11 12 13 15 15 17 19 20 22 23 24 25 25 25 25 25 25 26 27 27 28
27 24 22 21 19 18 18 17 15 15 13 12 12 11 11 10 10 10 10 10 11 12 13 14 16 17 19 21 22 24 25 25 25 26 25 26 25 25 26 27 27 27
25 23 21 20 19 18 17 16 15 14 12 11 11 11 11 11 10 10 10 11 12 13 14 14 17 19 21 22 23 25 25 26 26 26 26 26 26 26 27 27 27 27
24 22 20 19 18 17 16 15 14 12 12 12 12 12 11 11 10 11 12 12 13 13 15 16 18 21 23 24 24 25 25 26 26 27 27 27 27 27 28 28 28 28
23 21 20 19 18 17 15 14 12 12 12 12 12 12 11 11 12 12 12 12 13 14 17 19 20 22 23 24 24 24 25 26 26 27 27 28 28 28 29 29 29 29
Wind_Direction
208 208 208 204 198 193 189 187 186 186 186 185 184 185 186 188 193 196 200 205 203 200 199 199 204 210 216 224 257 318 336 344 342 344 344 342 343 340 337 335 333 331
205 205 205 202 196 192 189 188 186 185 185 184 184 186 189 192 196 198 200 200 196 193 192 192 204 224 246 285 318 327 330 331 331 332 333 333 333 331 328 327 325 323
202 202 202 200 196 192 190 187 185 184 183 184 186 188 193 197 197 197 196 193 190 187 188 203 231 257 280 302 317 323 326 326 326 326 325 326 325 323 322 320 319 318
200 200 200 199 196 193 190 186 184 183 182 185 188 193 196 197 197 196 192 187 184 183 195 220 245 269 284 299 309 314 317 318 318 319 318 318 319 319 318 317 317 316
198 198 198 197 194 192 188 184 183 181 181 185 189 192 193 194 194 191 185 180 180 189 203 221 242 262 277 290 299 304 307 309 311 313 314 316 317 318 318 317 318 318
198 197 197 195 193 191 186 182 180 179 180 185 188 189 189 190 189 184 179 179 183 195 209 222 239 256 271 283 291 297 301 305 309 312 314 317 318 319 319 318 319 318
199 197 196 195 192 189 185 181 178 178 182 186 187 187 187 186 184 180 180 185 193 204 215 226 242 259 272 282 289 295 301 305 309 312 314 316 318 319 319 317 317 317
200 197 195 193 190 186 183 181 179 180 183 185 185 186 186 184 183 184 187 194 204 214 224 237 252 264 274 283 290 296 303 307 310 314 315 317 319 318 318 316 315 315
199 197 194 191 188 185 182 180 181 182 182 183 184 184 185 185 186 190 196 204 216 228 242 254 264 273 280 288 296 302 307 310 314 317 317 319 320 319 318 317 316 316
198 196 193 189 186 184 182 181 182 182 181 182 184 185 187 190 193 198 206 215 228 244 258 267 275 283 289 296 302 307 311 313 315 317 318 319 319 318 318 317 316 317
197 195 191 188 186 183 181 181 181 180 182 185 186 188 191 194 200 206 215 228 242 255 266 274 282 289 294 300 305 308 312 314 315 317 317 317 318 318 318 318 318 317
195 192 189 186 184 183 181 180 180 182 186 189 190 193 197 201 207 215 225 240 252 262 270 276 283 290 296 302 307 310 313 315 317 318 318 318 319 319 319 320 319 318
192 190 187 186 184 183 181 180 182 186 189 192 194 197 202 205 211 223 234 246 256 264 271 279 287 294 301 306 310 314 316 318 319 318 318 319 320 320 321 320 320 318
189 187 187 186 184 182 181 181 185 190 192 195 197 200 205 210 217 229 240 249 258 266 274 284 293 299 306 310 313 317 318 319 319 318 319 319 320 320 320 319 318 317
187 186 186 185 183 182 182 184 188 192 194 197 201 204 209 216 225 235 244 251 259 267 277 289 298 304 310 313 315 316 317 317 317 317 317 318 318 318 317 316 315 314
187 186 185 184 183 183 185 188 191 194 198 201 205 210 216 225 235 242 249 256 264 276 288 298 305 310 313 315 315 314 314 314 314 315 316 316 316 316 315 315 314 313
186 186 185 184 185 186 188 191 194 198 203 207 210 215 224 233 241 247 254 264 277 290 300 306 311 314 315 315 314 312 313 313 314 314 315 315 315 314 314 314 314 313
186 185 186 187 187 189 192 194 198 203 207 210 213 220 230 238 244 249 257 271 284 294 302 307 310 312 312 311 311 310 311 312 312 313 314 313 312 312 312 312 312 312
187 187 188 189 189 191 194 197 201 205 207 210 216 226 235 239 244 251 260 274 284 291 298 302 304 306 306 306 306 306 307 308 308 309 309 309 309 309 310 310 310 309
189 190 190 190 191 193 196 199 202 204 207 214 221 230 237 239 246 255 263 273 282 288 293 296 299 301 302 302 303 303 303 304 304 305 305 306 307 307 307 307 307 307
191 191 191 190 192 194 196 199 202 205 211 219 226 233 237 242 249 257 265 273 280 287 293 296 299 300 300 301 302 302 302 303 303 304 304 304 304 304 304 304 304 304
191 190 190 191 193 195 197 200 203 208 216 223 230 236 240 247 255 261 269 277 283 290 296 298 299 300 301 302 302 302 302 302 302 302 301 301 301 301 301 302 302 301
192 191 190 191 193 196 199 202 207 213 221 228 236 242 247 253 260 267 275 284 290 295 297 298 299 300 301 302 302 302 302 301 301 301 301 301 302 302 301 301 301 301
191 190 191 193 195 198 202 206 212 219 228 236 242 247 252 259 266 274 283 288 291 293 294 296 298 300 301 302 302 301 301 301 301 301 301 302 302 302 301 301 301 301
190 189 190 194 197 201 205 211 218 225 234 241 245 251 256 264 272 278 282 284 286 291 295 298 300 301 301 301 301 301 300 300 300 300 300 302 302 302 302 301 301 302
189 189 192 195 200 205 209 216 224 232 240 245 249 255 260 266 272 275 279 283 289 294 297 298 300 300 300 300 301 301 300 300 299 300 300 301 301 300 301 301 302 303
Height
1452 1453 1455 1456 1457 1458 1459 1461 1462 1464 1465 1466 1468 1469 1470 1471 1473 1474 1475 1476 1476 1477 1478 1478 1479 1479 1480 1480 1480 1479 1479 1479 1479 1479 1479 1479 1479 1478 1478 1478 1477 1477
1449 1451 1453 1454 1455 1457 1458 1459 1461 1462 1464 1465 1467 1468 1469 1471 1472 1472 1473 1474 1475 1475 1476 1477 1478 1478 1479 1479 1479 1478 1478 1478 1478 1478 1478 1478 1478 1477 1477 1477 1477 1476
1447 1449 1451 1452 1453 1455 1456 1458 1459 1461 1463 1464 1465 1467 1468 1470 1471 1471 1472 1472 1473 1474 1475 1476 1477 1477 1478 1478 1478 1478 1477 1477 1477 1477 1477 1476 1476 1476 1476 1476 1476 1475
1446 1447 1449 1451 1452 1454 1455 1457 1458 1459 1461 1462 1464 1466 1467 1469 1470 1471 1471 1471 1471 1472 1473 1474 1475 1476 1476 1477 1477 1477 1476 1476 1476 1476 1476 1475 1475 1475 1475 1475 1474 1474
1444 1446 1447 1449 1451 1453 1454 1455 1456 1458 1459 1461 1462 1464 1466 1468 1469 1470 1469 1469 1470 1471 1472 1473 1474 1475 1475 1475 1476 1476 1476 1475 1475 1475 1475 1474 1474 1474 1474 1473 1473 1472
1444 1445 1447 1449 1450 1452 1453 1454 1455 1456 1458 1460 1461 1463 1465 1467 1468 1469 1469 1469 1470 1470 1471 1472 1473 1473 1474 1474 1474 1474 1474 1474 1474 1474 1473 1473 1473 1472 1472 1472 1471 1471
1443 1445 1446 1448 1450 1452 1453 1454 1454 1455 1457 1459 1461 1463 1465 1466 1467 1468 1468 1469 1470 1470 1471 1471 1472 1472 1473 1473 1473 1473 1473 1473 1473 1473 1472 1472 1471 1471 1470 1470 1469 1469
1441 1443 1445 1447 1449 1451 1452 1453 1453 1454 1456 1458 1460 1462 1464 1465 1466 1467 1468 1468 1469 1470 1470 1470 1471 1471 1472 1471 1471 1471 1471 1471 1471 1471 1471 1470 1470 1469 1468 1468 1467 1467
1439 1441 1443 1445 1447 1449 1450 1451 1452 1453 1455 1457 1459 1461 1462 1464 1465 1466 1467 1467 1468 1469 1469 1470 1470 1470 1470 1470 1469 1469 1469 1470 1470 1469 1469 1468 1468 1467 1466 1466 1465 1465
1438 1439 1442 1443 1445 1447 1448 1449 1450 1452 1454 1456 1458 1460 1461 1463 1464 1465 1466 1466 1467 1468 1468 1469 1469 1469 1468 1468 1468 1467 1468 1468 1468 1468 1467 1466 1466 1465 1465 1464 1463 1463
1436 1438 1440 1442 1443 1445 1446 1448 1449 1451 1453 1455 1457 1459 1460 1462 1463 1464 1465 1465 1466 1467 1467 1467 1467 1467 1467 1466 1466 1466 1466 1466 1466 1466 1465 1465 1464 1463 1463 1462 1461 1461
1435 1437 1439 1440 1442 1444 1445 1447 1448 1450 1452 1454 1456 1457 1459 1461 1462 1463 1463 1464 1465 1465 1466 1466 1466 1466 1465 1465 1464 1464 1464 1464 1464 1464 1463 1463 1462 1461 1460 1460 1459 1458
1434 1436 1438 1440 1441 1443 1444 1445 1447 1449 1451 1453 1454 1456 1458 1459 1461 1462 1462 1463 1464 1464 1464 1464 1464 1464 1464 1463 1462 1462 1462 1462 1462 1462 1461 1461 1460 1459 1458 1457 1457 1456
1432 1434 1436 1438 1440 1442 1443 1445 1447 1449 1450 1452 1453 1455 1457 1458 1459 1460 1461 1461 1462 1462 1462 1462 1462 1462 1461 1461 1460 1460 1460 1460 1460 1460 1459 1458 1458 1457 1456 1455 1455 1454
1431 1432 1435 1437 1440 1441 1443 1445 1446 1448 1449 1451 1453 1454 1456 1457 1458 1459 1460 1460 1460 1460 1461 1461 1460 1460 1459 1458 1458 1458 1458 1459 1458 1458 1457 1456 1456 1455 1454 1453 1452 1452
1430 1432 1434 1436 1439 1441 1442 1444 1446 1447 1449 1450 1452 1454 1455 1456 1457 1458 1458 1458 1458 1458 1459 1458 1458 1458 1457 1457 1456 1456 1457 1457 1456 1456 1455 1454 1454 1452 1451 1451 1450 1449
1429 1431 1434 1436 1438 1440 1441 1443 1445 1446 1448 1450 1451 1453 1454 1455 1456 1456 1456 1456 1456 1456 1456 1456 1456 1455 1455 1455 1455 1454 1454 1454 1453 1453 1452 1452 1451 1450 1449 1448 1448 1447
1429 1431 1433 1436 1437 1439 1440 1442 1444 1445 1447 1449 1450 1452 1453 1454 1455 1455 1455 1455 1455 1455 1454 1454 1454 1453 1453 1453 1453 1452 1451 1451 1451 1450 1450 1449 1448 1447 1447 1446 1445 1444
1429 1430 1432 1435 1436 1438 1439 1441 1443 1444 1446 1448 1449 1451 1452 1453 1453 1453 1454 1454 1453 1453 1453 1453 1452 1452 1452 1452 1451 1450 1450 1449 1449 1448 1448 1447 1446 1445 1445 1444 1443 1441
1427 1429 1431 1433 1435 1436 1438 1440 1441 1443 1445 1447 1448 1450 1451 1451 1452 1452 1452 1452 1452 1452 1451 1451 1451 1451 1450 1450 1449 1448 1448 1447 1446 1446 1445 1445 1444 1443 1442 1441 1440 1438
1426 1427 1429 1431 1433 1435 1437 1439 1441 1442 1444 1446 1447 1448 1449 1450 1450 1450 1450 1450 1450 1450 1450 1449 1449 1449 1448 1448 1447 1446 1445 1444 1443 1443 1442 1442 1442 1441 1440 1438 1437 1435
1424 1426 1428 1430 1432 1434 1436 1438 1440 1441 1443 1444 1446 1447 1447 1448 1448 1448 1449 1449 1448 1448 1447 1446 1446 1446 1445 1444 1444 1443 1442 1441 1440 1440 1440 1439 1439 1438 1437 1435 1434 1433
1423 1424 1426 1429 1431 1433 1435 1437 1439 1440 1442 1443 1444 1445 1446 1446 1446 1446 1446 1446 1445 1445 1445 1444 1443 1443 1442 1441 1440 1439 1438 1438 1437 1437 1436 1436 1435 1434 1433 1432 1430 1429
1422 1424 1426 1428 1430 1432 1434 1436 1438 1439 1440 1442 1442 1443 1444 1444 1444 1444 1443 1443 1443 1443 1442 1442 1441 1440 1439 1438 1437 1436 1435 1434 1434 1433 1432 1432 1431 1430 1429 1428 1426 1425
1421 1423 1425 1428 1430 1432 1433 1435 1436 1438 1439 1440 1441 1441 1441 1441 1441 1441 1441 1441 1441 1440 1440 1439 1438 1437 1436 1435 1434 1433 1432 1431 1430 1429 1429 1428 1427 1426 1425 1423 1422 1421
1420 1422 1425 1427 1429 1431 1432 1433 1435 1436 1437 1438 1438 1439 1439 1439 1439 1439 1439 1439 1438 1438 1437 1436 1436 1435 1433 1432 1431 1430 1429 1428 1427 1426 1425 1424 1423 1422 1421 1419 1418 1416